TimeCDT,TemperatureF,Dew PointF,Humidity,Sea Level PressureIn,VisibilityMPH,Wind Direction,Wind SpeedMPH,Gust SpeedMPH,PrecipitationIn,Events,Conditions,WindDirDegrees,DateUTC
12:54 AM,55.9,55.9,100,30.06,1.8,East,9.2,-,N/A,,Overcast,100,2013-10-30 05:54:00
1:10 AM,57.0,55.9,96,30.06,2.0,East,8.1,-,N/A,,Overcast,100,2013-10-30 06:10:00
1:47 AM,57.0,55.9,96,30.05,1.8,ESE,6.9,-,N/A,,Mist,110,2013-10-30 06:47:00
1:54 AM,57.0,55.9,96,30.05,2.0,East,8.1,-,N/A,,Mist,100,2013-10-30 06:54:00
2:02 AM,57.0,55.9,96,30.05,1.8,ESE,8.1,-,N/A,,Overcast,110,2013-10-30 07:02:00
2:43 AM,55.9,55.9,100,30.05,1.5,ESE,6.9,-,N/A,,Overcast,110,2013-10-30 07:43:00
2:54 AM,55.9,55.9,100,30.05,1.5,ESE,5.8,-,N/A,,Overcast,110,2013-10-30 07:54:00
3:36 AM,55.9,55.9,100,30.05,0.8,East,6.9,-,N/A,,Mist,100,2013-10-30 08:36:00
3:54 AM,55.9,55.9,100,30.04,0.5,East,8.1,-,N/A,Fog,Fog,100,2013-10-30 08:54:00
4:54 AM,55.9,55.9,100,30.04,0.2,East,6.9,-,N/A,Fog,Fog,100,2013-10-30 09:54:00
5:54 AM,55.9,55.9,100,30.05,0.2,East,5.8,-,N/A,Fog,Fog,100,2013-10-30 10:54:00
6:54 AM,55.9,55.9,100,30.04,0.2,East,8.1,-,N/A,Fog,Fog,100,2013-10-30 11:54:00
7:54 AM,57.0,57.0,100,30.04,0.2,East,9.2,-,N/A,Fog,Fog,100,2013-10-30 12:54:00
8:54 AM,57.9,57.9,100,30.04,0.2,East,9.2,-,N/A,Fog,Fog,100,2013-10-30 13:54:00
9:26 AM,59.0,59.0,100,30.04,1.2,East,9.2,-,N/A,,Overcast,100,2013-10-30 14:26:00
9:54 AM,60.1,60.1,100,30.04,1.2,East,9.2,-,N/A,,Overcast,90,2013-10-30 14:54:00
10:54 AM,63.0,62.1,97,30.01,2.0,East,6.9,-,N/A,,Overcast,100,2013-10-30 15:54:00
11:15 AM,64.0,63.0,96,30.01,3.0,East,5.8,-,N/A,,Overcast,100,2013-10-30 16:15:00
11:26 AM,64.9,63.0,93,30.01,3.0,ESE,5.8,-,N/A,,Overcast,110,2013-10-30 16:26:00
11:54 AM,66.0,64.0,93,30.00,3.0,ESE,6.9,-,N/A,,Mist,110,2013-10-30 16:54:00
12:54 PM,69.1,66.0,90,29.96,4.0,ESE,5.8,-,0.03,,Mostly Cloudy,110,2013-10-30 17:54:00
1:54 PM,70.0,66.9,90,29.91,6.0,East,6.9,-,N/A,,Mostly Cloudy,90,2013-10-30 18:54:00
2:54 PM,71.1,66.0,84,29.89,7.0,SSE,10.4,-,N/A,,Mostly Cloudy,160,2013-10-30 19:54:00
3:54 PM,71.1,64.0,78,29.89,10.0,South,12.7,24.2,N/A,,Overcast,190,2013-10-30 20:54:00
4:54 PM,70.0,63.0,78,29.87,10.0,South,6.9,-,N/A,,Mostly Cloudy,190,2013-10-30 21:54:00
5:54 PM,68.0,63.0,84,29.88,10.0,SSW,4.6,-,0.00,Rain,Light Rain,200,2013-10-30 22:54:00
6:54 PM,66.9,63.0,87,29.86,10.0,SSE,9.2,-,0.01,,Overcast,160,2013-10-30 23:54:00
7:54 PM,69.1,63.0,81,29.87,10.0,South,15.0,-,0.00,Rain,Light Rain,180,2013-10-31 00:54:00
8:54 PM,66.9,63.0,87,29.86,10.0,South,11.5,-,0.00,Rain,Light Rain,170,2013-10-31 01:54:00
9:54 PM,66.0,63.0,90,29.86,10.0,South,10.4,-,0.01,Rain,Light Rain,170,2013-10-31 02:54:00
10:54 PM,66.0,62.1,87,29.84,10.0,South,9.2,-,0.00,Rain,Light Rain,180,2013-10-31 03:54:00
11:35 PM,66.0,62.1,87,29.84,10.0,South,12.7,-,0.00,Rain,Light Rain,190,2013-10-31 04:35:00
11:44 PM,66.0,62.1,87,29.83,9.0,South,12.7,-,0.00,Rain,Light Rain,190,2013-10-31 04:44:00
11:54 PM,64.9,62.1,90,29.82,10.0,South,12.7,-,0.00,Rain,Light Rain,190,2013-10-31 04:54:00